Погода в Чернореченском

Россия / Республика Коми     62°45′48″N   51°29′47″E
темп.,
°C
ветер,
м/с
пор.,
м/с
влажн.,
%
обл.,
%
осадки,
мм/ч
давл.,
гПа
погр.,
м
9 мая, вс
вс900:00+7вюв3869100 0.0 1017170
03:00+7вюв41170100 0.0 1017268
06:00+9юв41264100 0.0 1016436
09:00+13ююв5959100 0.0 10141019
12:00+17ююв6948100 0.0 10131359
15:00+20ююв51241100 0.0 10122365
18:00+18ююв61244100 0.0 10121673
21:00+16ююв51451100 0.0 1012965
10 мая, пн
пн1000:00+15ююв51557100 0.0 1012916
03:00+14ю51562100 0.0 1012833
06:00+13зюз4878100 0.3 1014850
09:00+6сз4889100 2.2 1019618
12:00+6сз3687100 2.9 1023616
15:00+8ссз4660100 3.2 10241031
18:00+9ссз25555 0.0 10261159
21:00+5ю11715 0.0 102810
11 мая, вт
вт1100:00+4ююз22775 0.0 102938
03:00+3ююз24845 0.0 103079
06:00+7ююз376792 0.0 1030249
09:00+12юз584269 0.0 10291085
12:00+11юз51151100 0.0 1028989
15:00+11юз41254100 0.0 1028699
18:00+10юз31275100 0.1 1028521
21:00+11зюз31273100 0.1 1028428
12 мая, ср
ср1200:00+11юз2981100 0.0 1028262
03:00+9зюз2991100 0.0 1028234
06:00+13зюз3107622 0.0 1028335
09:00+18зюз5955100 0.0 1027889
12:00+22з594097 0.0 10271561
15:00+23з5937100 0.0 10261761
18:00+21зсз484693 0.0 10271034
21:00+15з23686 0.0 102742
13 мая, чт
чт1300:00+13зсз22785 0.0 102828
03:00+12с22865 0.0 102825
06:00+16св23755 0.0 1029352
09:00+20всв215526 0.0 1029910
12:00+24в1242100 0.1 10272090
15:00+19в3556100 0.1 1026286
18:00+18в2657100 0.0 1026234
21:00+16юв2865100 0.0 1025237